West Point Lake Weather Center

Moon Phase Calendar



West Point Lake Water Level
Online Cameras

 


      

Current Conditions in Rockwell Estates
2/23/2024 9:00:32 AM

56°F
Feels Like 55
Clouds
Humidity
94%
Pressure
29.71"
Wind
4.6 mph (WNW)
Dew Point
54°F
UV Index
1/10 (Low)
Visibility
6 mi

Hourly Forecast

Date & Time Fri, Feb 23
9:00 AM
Fri, Feb 23
10:00 AM
Fri, Feb 23
11:00 AM
Fri, Feb 23
12:00 PM
Fri, Feb 23
1:00 PM
Fri, Feb 23
2:00 PM
Fri, Feb 23
3:00 PM
Fri, Feb 23
4:00 PM
Fri, Feb 23
5:00 PM
Fri, Feb 23
6:00 PM
Fri, Feb 23
7:00 PM
Fri, Feb 23
8:00 PM
Fri, Feb 23
9:00 PM
Fri, Feb 23
10:00 PM
Fri, Feb 23
11:00 PM
Sat, Feb 24
12:00 AM
Sat, Feb 24
1:00 AM
Sat, Feb 24
2:00 AM
Sat, Feb 24
3:00 AM
Sat, Feb 24
4:00 AM
Sat, Feb 24
5:00 AM
Sat, Feb 24
6:00 AM
Sat, Feb 24
7:00 AM
Sat, Feb 24
8:00 AM
Sat, Feb 24
9:00 AM
Sat, Feb 24
10:00 AM
Sat, Feb 24
11:00 AM
Sat, Feb 24
12:00 PM
Sat, Feb 24
1:00 PM
Sat, Feb 24
2:00 PM
Sat, Feb 24
3:00 PM
Sat, Feb 24
4:00 PM
Sat, Feb 24
5:00 PM
Sat, Feb 24
6:00 PM
Sat, Feb 24
7:00 PM
Sat, Feb 24
8:00 PM
Sat, Feb 24
9:00 PM
Sat, Feb 24
10:00 PM
Sat, Feb 24
11:00 PM
Sun, Feb 25
12:00 AM
Sun, Feb 25
1:00 AM
Sun, Feb 25
2:00 AM
Sun, Feb 25
3:00 AM
Sun, Feb 25
4:00 AM
Sun, Feb 25
5:00 AM
Sun, Feb 25
6:00 AM
Sun, Feb 25
7:00 AM
Sun, Feb 25
8:00 AM
Condition
Clouds

Clouds

Clouds

Clouds

Rain

Clouds

Clouds

Clouds

Clouds

Clouds

Clouds

Clear

Clear

Clear

Clear

Clear

Clear

Clear

Clear

Clear

Clear

Clear

Clear

Clear

Clear

Clear

Clear

Clear

Clear

Clear

Clear

Clear

Clear

Clear

Clear

Clear

Clear

Clear

Clear

Clear

Clear

Clear

Clear

Clear

Clear

Clear

Clear

Clear
Temperature 56°F56°F56°F57°F61°F64°F65°F65°F62°F58°F53°F51°F51°F52°F52°F50°F48°F45°F44°F43°F43°F43°F44°F46°F50°F54°F57°F59°F60°F60°F61°F60°F57°F53°F49°F47°F44°F42°F39°F38°F37°F36°F35°F34°F33°F33°F32°F35°F
Feels Like 55°F56°F56°F57°F60°F62°F63°F63°F60°F56°F51°F49°F49°F50°F50°F48°F45°F43°F41°F40°F40°F39°F40°F41°F48°F52°F55°F56°F57°F58°F58°F58°F55°F50°F45°F42°F40°F38°F37°F35°F34°F32°F31°F31°F30°F29°F29°F35°F
Cloudiness 40%50%61%72%82%77%38%26%19%16%13%1%2%1%1%1%1%0%0%0%0%0%1%8%6%4%3%4%4%8%7%7%7%6%6%0%0%0%0%0%0%0%0%0%0%0%1%6%
Visibility 6 mi6 mi6 mi6 mi6 mi6 mi6 mi6 mi6 mi6 mi6 mi6 mi6 mi6 mi6 mi6 mi6 mi6 mi6 mi6 mi6 mi6 mi6 mi6 mi6 mi6 mi6 mi6 mi6 mi6 mi6 mi6 mi6 mi6 mi6 mi6 mi6 mi6 mi6 mi6 mi6 mi6 mi6 mi6 mi6 mi6 mi6 mi6 mi
Precipitation 15%40%70%62%70%20%15%0%0%0%0%0%0%0%0%0%0%0%0%0%0%0%0%0%0%0%0%0%0%0%0%0%0%0%0%0%0%0%0%0%0%0%0%0%0%0%0%0%
Humidity 94%92%92%88%74%56%39%40%45%51%64%70%72%70%70%70%74%83%85%85%85%84%79%74%65%55%46%42%39%37%38%42%47%52%55%60%65%68%72%74%77%79%82%83%82%81%79%72%
Dew Point 54°F54°F54°F54°F52°F47°F39°F40°F41°F40°F41°F41°F42°F42°F42°F41°F40°F40°F40°F39°F39°F38°F38°F38°F39°F38°F37°F35°F34°F34°F34°F37°F37°F35°F33°F33°F33°F32°F31°F30°F30°F30°F30°F29°F28°F27°F26°F26°F
Pressure 29.71"29.71"29.71"29.71"29.71"29.68"29.71"29.71"29.74"29.77"29.8"29.83"29.83"29.85"29.88"29.91"29.91"29.91"29.91"29.91"29.91"29.91"29.94"29.94"29.94"29.97"29.94"29.97"29.94"29.94"29.94"29.97"29.97"30.03"30.09"30.09"30.12"30.15"30.18"30.18"30.18"30.21"30.21"30.21"30.21"30.21"30.24"30.24"
Wind Speed 8.7 mph9 mph7.9 mph8.4 mph11.2 mph11.1 mph13.4 mph12.2 mph11.7 mph9.8 mph5.6 mph5.6 mph6.9 mph8.7 mph9.6 mph9.7 mph6.8 mph5 mph5.1 mph5.1 mph5.3 mph5.9 mph7.2 mph8.7 mph10.7 mph13.1 mph14 mph15.4 mph16 mph15.8 mph15.4 mph13.8 mph13.1 mph13.1 mph10.7 mph8.6 mph7.3 mph5.6 mph4.2 mph3.8 mph4.1 mph4.3 mph4.2 mph4 mph4 mph4.2 mph3.9 mph2.8 mph
Wind
Direction
285°
WNW
291°
WNW
296°
WNW
306°
NW
310°
NW
316°
NW
322°
NW
319°
NW
319°
NW
316°
NW
296°
WNW
293°
WNW
309°
NW
311°
NW
311°
NW
316°
NW
310°
NW
290°
WNW
276°
W
270°
W
254°
WSW
251°
WSW
254°
WSW
261°
W
275°
W
294°
WNW
297°
WNW
298°
WNW
301°
WNW
301°
WNW
304°
NW
308°
NW
317°
NW
322°
NW
319°
NW
330°
NNW
347°
NNW
345°
NNW
332°
NNW
340°
NNW
353°
N

N

N

N
359°
N
353°
N
355°
N
352°
N

Daily Forecast

Date High Low Precip. Humidity
Today
Feb 23

Rain
65 °F
51 °F
100%
88%
Saturday
Feb 24

Clear
61 °F
39 °F
0%
42%
Sunday
Feb 25

Clear
62 °F
32 °F
0%
33%
Monday
Feb 26

Clouds
68 °F
44 °F
0%
46%
Tuesday
Feb 27

Clouds
71 °F
53 °F
0%
59%
Wednesday
Feb 28

Rain
69 °F
52 °F
100%
84%
Thursday
Feb 29

Rain
53 °F
47 °F
45%
86%
Friday
Mar 1

Rain
57 °F
48 °F
100%
93%
Saturday
Mar 2

Rain
53 °F
49 °F
100%
93%
Sunday
Mar 3

Clouds
63 °F
49 °F
0%
63%
Monday
Mar 4

Clouds
71 °F
50 °F
0%
51%
Tuesday
Mar 5

Rain
64 °F
54 °F
93%
85%
Wednesday
Mar 6

Rain
66 °F
59 °F
100%
97%
Thursday
Mar 7

Clouds
66 °F
51 °F
0%
57%
Friday
Mar 8

Rain
74 °F
51 °F
96%
52%
Saturday
Mar 9

Rain
68 °F
53 °F
100%
95%

Temperature 8-14 Day Outlook



Precipitation 8-14 Day Outlook




Quick Links
West Point Lake News
West Point Lake Photos
West Point Lake Videos




About Us
Contact Us
Site Map
Search Site
Advertise With Us
   
www.WestPointLake.info
THE WEST POINT LAKE WEBSITE

Copyright 2024, Lakes Online
Privacy    |    Legal